This is the latest recevied weather packets stored in our database for station/object HF3P-11. If no packets are shown the sender has not sent any weather packets the latest 1 day(s).
| Time | Temp. | Humidity | Pressure | Rain* | Wind** | Luminosity | Snow |
|---|---|---|---|---|---|---|---|
| 1777983001 | 20.56° C | 63% | 1000.9 hPa | 0 mm | 2.24 m/s, 39° | - | - |
| 1777982709 | 20.56° C | 65% | 1000.9 hPa | 0 mm | 2.24 m/s, 34° | - | - |
| 1777982401 | 20.56° C | 65% | 1000.9 hPa | 0 mm | 3.13 m/s, 31° | - | - |
| 1777982109 | 20.56° C | 63% | 1000.8 hPa | 0 mm | 2.68 m/s, 39° | - | - |
| 1777981810 | 20.56° C | 64% | 1001 hPa | 0 mm | 2.24 m/s, 35° | - | - |
| 1777981509 | 20.56° C | 65% | 1000.9 hPa | 0 mm | 2.24 m/s, 22° | - | - |
| 1777981202 | 20.56° C | 65% | 1001 hPa | 0 mm | 2.24 m/s, 10° | - | - |
| 1777980910 | 20.56° C | 66% | 1001.1 hPa | 0 mm | 2.68 m/s, 25° | - | - |
| 1777980611 | 20.56° C | 65% | 1001.1 hPa | 0 mm | 2.68 m/s, 26° | - | - |
| 1777980301 | 20.56° C | 67% | 1001.1 hPa | 0 mm | 2.24 m/s, 354° | - | - |
| 1777980001 | 20.56° C | 66% | 1001.3 hPa | 0 mm | 2.24 m/s, 357° | - | - |
| 1777979709 | 20.56° C | 66% | 1001.1 hPa | 0 mm | 2.24 m/s, 14° | - | - |
| 1777979409 | 20.56° C | 67% | 1001.3 hPa | 0 mm | 2.68 m/s, 33° | - | - |
| 1777979102 | 20.56° C | 67% | 1001.4 hPa | 0 mm | 2.24 m/s, 46° | - | - |
| 1777978801 | 20.56° C | 69% | 1001.3 hPa | 0 mm | 1.79 m/s, 38° | - | - |
| 1777978509 | 20.56° C | 67% | 1001.3 hPa | 0 mm | 2.24 m/s, 24° | - | - |
| 1777978202 | 20.56° C | 67% | 1001.2 hPa | 0 mm | 2.68 m/s, 23° | - | - |
| 1777977909 | 20.56° C | 67% | 1001.5 hPa | 0 mm | 2.68 m/s, 27° | - | - |
| 1777977601 | 20.56° C | 68% | 1001.3 hPa | 0 mm | 2.24 m/s, 21° | - | - |
| 1777977309 | 20.56° C | 69% | 1001.6 hPa | 0 mm | 2.24 m/s, 17° | - | - |
| 1777977002 | 20.56° C | 71% | 1001.5 hPa | 0 mm | 2.24 m/s, 23° | - | - |
| 1777976709 | 20° C | 72% | 1001.7 hPa | 0 mm | 2.24 m/s, 22° | - | - |
| 1777976401 | 20° C | 73% | 1001.7 hPa | 0 mm | 1.79 m/s, 28° | - | - |
| 1777976109 | 19.44° C | 74% | 1001.7 hPa | 0 mm | 1.79 m/s, 39° | - | - |
| 1777975801 | 19.44° C | 73% | 1001.8 hPa | 0 mm | 2.24 m/s, 41° | - | - |
* Rain latest hour (hover to see other rain measurements)
** Current wind speed in m/s (hover to see current wind gust speed)